星链-4302 (STARLINK-4302 )

导读 | 豆包AI

STARLINK-4302是美国SpaceX公司星链(Starlink)星座的成员卫星,于2022年8月12日发射入轨,运行在近地轨道,属于星链第二代组网卫星,依托星链全球卫星互联网布局,为全球提供高速低延迟宽带服务,覆盖偏远地区、航空航海等场景,推动全球卫星互联网普及进程。

基本信息
目录编号:
53481
目录名称:
STARLINK-4302
国际标识:
2022-099S
轨道中心:
EARTH
卫星名称:
星链-4302
卫星全名:
星链-4302 (STARLINK-4302 )
卫星状态:
在轨 (已飞行1311 天)
发射日期:
2022-08-12 UTC
国别 :
美国 (US)
星等 :
--
轨道信息
数据来源 国际轨道数据 AOE轨道数据
星历时间 2026-03-15T05:39:34+0800
8小时前
查看轨道信息
2026-03-14T15:00:00+0800
23小时前
查看轨道信息
半长轴 6941.131km 6941.131km
偏心率 0.0005067 0.0004741
轨道倾角 97.601° 97.604°
近地点辐角 187.829° 192.009°
升交点赤经 195.309° 194.713°
平近点角 172.286° 108.995°
近地点 559.476km 559.703km
远地点 566.512km 566.285km
周期 95.919分钟 95.919分钟
每日圈数 15.012652 15.012654
详细信息
固有亮度:
5
最大亮度:
2.5
卫星平台:
Starlink v1.5
覆盖范围:
全球
运营商:
太空探索技术公司
运营商所在国:
美国
制造商(研发单位):
太空探索技术公司
制造商所在国:
美国
使用方式:
暂无
卫星简介
星链(Starlink)计划是由太空探索技术公司(SpaceX)提出的一个巨型低轨卫星互联网星座项目,计划在2019年至2024年间在太空搭建由约1.2万颗卫星组成的“星链”网络,其中1584颗将部署在地球上空550千米处的近地轨道,并从2020年开始工作。该卫星仍在工作。
2D轨道图
3D轨道图
轨道高度分析图
轨道倾角分析图
轨道综合分析图
查看轨道综合分析图